This demonstration page uses our WeatherBlox Daily Observations layout. Learn more.

Left ArrowRight Arrow

Hourly Observations for February 16, 2016

Temp ( °F °C ) Dew Point ( °F °C ) Humidity (%) Winds ( mph kmh ) Pressure ( in mb ) Visibility ( mi km ) Precip ( " mm )
12:51 am 00:51 Clear 47 8.3 21 -6.1 36 36 E 6 9 29.95 1014 10 16.0934 N/A
1:51 am 01:51 Clear 47 8.3 20 -6.7 34 34 E 8 13 29.94 1014 10 16.0934 N/A
2:51 am 02:51 Clear 43 6.1 19 -7.2 38 38 ENE 5 7 29.96 1014 10 16.0934 N/A
3:51 am 03:51 Clear 45 7.2 21 -6.1 39 39 E 3 6 29.95 1014 10 16.0934 N/A
4:51 am 04:51 Clear 41 5 21 -6.1 45 45 E 5 7 29.96 1015 10 16.0934 N/A
5:51 am 05:51 Clear 40 4.4 21 -6.1 47 47 NNE 3 6 29.99 1016 10 16.0934 N/A
6:51 am 06:51 Clear 39 3.9 20 -6.7 46 46 ESE 9 15 30.01 1016 10 16.0934 N/A
7:51 am 07:51 Sunny 44 6.7 22 -5.6 41 41 SSE 7 11 30.03 1017 10 16.0934 N/A
8:51 am 08:51 Sunny 52 11.1 23 -5 32 32 SE 8 13 30.04 1017 10 16.0934 N/A
9:51 am 09:51 Sunny 61 16.1 25 -3.9 25 25 ESE 8 13 30.02 1017 10 16.0934 N/A
10:51 am 10:51 Sunny 66 18.9 25 -3.9 21 21 SE 10 17 30.01 1016 10 16.0934 N/A
11:51 am 11:51 Sunny 70 21.1 23 -5 17 17 SSE 8 13 29.98 1015 10 16.0934 N/A
12:51 pm 12:51 Sunny 73 22.8 23 -5 15 15 S 7 11 29.95 1014 10 16.0934 N/A
1:51 pm 13:51 Sunny 76 24.4 23 -5 14 14 SE 6 9 29.91 1013 10 16.0934 N/A
2:51 pm 14:51 Sunny 77 25 21 -6.1 12 12 SSE 6 9 29.88 1012 10 16.0934 N/A
3:51 pm 15:51 Sunny 80 26.7 19 -7.2 10 10 SSE 5 7 29.85 1011 10 16.0934 N/A
4:51 pm 16:51 Sunny 80 26.7 17 -8.3 9 9 N N/A 29.86 1011 10 16.0934 N/A
5:51 pm 17:51 Sunny 77 25 18 -7.8 11 11 N N/A 29.87 1012 10 16.0934 N/A
6:51 pm 18:51 Clear 66 18.9 21 -6.1 18 18 WNW 3 6 29.91 1013 10 16.0934 N/A
7:51 pm 19:51 Clear 58 14.4 21 -6.1 24 24 N 7 11 29.94 1014 10 16.0934 N/A
8:51 pm 20:51 Clear 56 13.3 21 -6.1 26 26 E 5 7 29.94 1014 10 16.0934 N/A
9:51 pm 21:51 Clear 53 11.7 22 -5.6 30 30 ESE 7 11 29.93 1014 10 16.0934 N/A
10:51 pm 22:51 Clear 50 10 22 -5.6 33 33 ESE 7 11 29.94 1014 10 16.0934 N/A
11:51 pm 23:51 Clear 52 11.1 23 -5 32 32 SE 9 15 29.93 1014 10 16.0934 N/A

Powered by AerisWeather